This is the latest recevied weather packets stored in our database for station/object N2PUI. If no packets are shown the sender has not sent any weather packets the latest 1 day(s).
| Time | Temp. | Humidity | Pressure | Rain* | Wind** | Luminosity | Snow |
|---|---|---|---|---|---|---|---|
| 1777973977 | 16.11° C | 59% | 1007.1 hPa | 0 mm | 0.45 m/s, 151° | 0 W/m² | - |
| 1777973674 | 16.11° C | 60% | 1007.1 hPa | 0 mm | 0.45 m/s, 180° | 0 W/m² | - |
| 1777973372 | 16.11° C | 59% | 1006.9 hPa | 0 mm | 0.89 m/s, 191° | 0 W/m² | - |
| 1777973069 | 16.67° C | 59% | 1006.9 hPa | 0 mm | 0.89 m/s, 201° | 0 W/m² | - |
| 1777972766 | 16.67° C | 58% | 1007.1 hPa | 0 mm | 1.79 m/s, 199° | 0 W/m² | - |
| 1777972464 | 16.11° C | 59% | 1007.1 hPa | 0 mm | 0.45 m/s, 177° | 0 W/m² | - |
| 1777972162 | 16.11° C | 59% | 1006.9 hPa | 0 mm | 0.89 m/s, 203° | 0 W/m² | - |
| 1777971860 | 16.11° C | 59% | 1006.9 hPa | 0 mm | 0.89 m/s, 199° | 0 W/m² | - |
| 1777971557 | 15.56° C | 60% | 1006.9 hPa | 0 mm | 0 m/s | 0 W/m² | - |
| 1777971255 | 15.56° C | 60% | 1007.1 hPa | 0 mm | 0 m/s | 0 W/m² | - |
| 1777970953 | 15.56° C | 61% | 1006.9 hPa | 0 mm | 0.89 m/s, 163° | 0 W/m² | - |
| 1777970651 | 15.56° C | 60% | 1006.8 hPa | 0 mm | 0 m/s | 0 W/m² | - |
| 1777970349 | 15.56° C | 60% | 1006.6 hPa | 0 mm | 0 m/s | 0 W/m² | - |
| 1777970046 | 15.56° C | 59% | 1006.8 hPa | 0 mm | 1.34 m/s, 177° | 0 W/m² | - |
| 1777969742 | 15.56° C | 59% | 1006.7 hPa | 0 mm | 0 m/s | 0 W/m² | - |
| 1777969437 | 15.56° C | 59% | 1006.7 hPa | 0 mm | 0.89 m/s, 126° | 0 W/m² | - |
| 1777969135 | 16.11° C | 59% | 1006.8 hPa | 0 mm | 0.89 m/s, 162° | 0 W/m² | - |
| 1777968831 | 16.11° C | 58% | 1006.9 hPa | 0 mm | 1.34 m/s, 120° | 0 W/m² | - |
| 1777968528 | 16.67° C | 57% | 1006.9 hPa | 0 mm | 0.45 m/s, 145° | 0 W/m² | - |
| 1777968224 | 16.11° C | 57% | 1007.1 hPa | 0 mm | 0.89 m/s, 170° | 0 W/m² | - |
| 1777967920 | 16.67° C | 57% | 1006.8 hPa | 0 mm | 0.45 m/s, 155° | 0 W/m² | - |
| 1777967617 | 16.67° C | 57% | 1006.9 hPa | 0 mm | 1.34 m/s, 124° | 0 W/m² | - |
| 1777967314 | 16.67° C | 57% | 1007 hPa | 0 mm | 1.34 m/s, 147° | 0 W/m² | - |
| 1777967011 | 16.67° C | 56% | 1006.8 hPa | 0 mm | 0.89 m/s, 164° | 0 W/m² | - |
| 1777966708 | 16.67° C | 56% | 1006.9 hPa | 0 mm | 1.34 m/s, 182° | 0 W/m² | - |
* Rain latest hour (hover to see other rain measurements)
** Current wind speed in m/s (hover to see current wind gust speed)